Emporia, Virginia, United States (23847)
Lat: 36.69N, Lon: 77.54W
Wx Zone: VAZ087
Local Info
Past Weather Observations for Tuesday, August 25, 2015

NOTE: This archive is for the closest National Weather Service station to Emporia. Information may differ from the station used for current weather conditions.

Click here for Long-term Archive

Time Weather Temperature Dewpoint Humidity Pressure Winds Precip Visibility
23:55
Clear
Fog And Mist
68°F / 20°C 68°F / 20°C 100% 29.95 in
(1014 mb)
Calm - 5SM
23:35
Obscured
Fog And Mist
68°F / 20°C 68°F / 20°C 100% 29.95 in
(1014 mb)
Calm - 1 1/2SM
23:15
Clear
Fog And Mist
70°F / 21°C 68°F / 20°C 94% 29.95 in
(1014 mb)
Calm - 5SM
22:55
Clear
Fog And Mist
68°F / 20°C 68°F / 20°C 100% 29.95 in
(1014 mb)
Calm - 5SM
22:35
Clear
Fog And Mist
68°F / 20°C 68°F / 20°C 100% 29.95 in
(1014 mb)
Calm - 4SM
22:15
Clear
70°F / 21°C 70°F / 21°C 100% 29.95 in
(1014 mb)
Calm - 7SM
21:55
Clear
70°F / 21°C 70°F / 21°C 100% 29.95 in
(1014 mb)
Calm - 10SM
21:35
Clear
70°F / 21°C 70°F / 21°C 100% 29.95 in
(1014 mb)
Calm - 10SM
21:15
Clear
70°F / 21°C 68°F / 20°C 94% 29.95 in
(1014 mb)
Calm - 7SM
20:55
Clear
72°F / 22°C 70°F / 21°C 94% 29.95 in
(1014 mb)
Calm - 10SM
20:35
Clear
70°F / 21°C 68°F / 20°C 94% 29.95 in
(1014 mb)
Calm - 10SM
20:15
Clear
70°F / 21°C 70°F / 21°C 100% 29.95 in
(1014 mb)
Calm - 10SM
19:55
Clear
72°F / 22°C 70°F / 21°C 94% 29.92 in
(1013 mb)
Calm - 10SM
19:35
Clear
73°F / 23°C 70°F / 21°C 89% 29.92 in
(1013 mb)
Calm - 10SM
19:15
Clear
73°F / 23°C 70°F / 21°C 89% 29.92 in
(1013 mb)
NE 3.5 mph
(NE 6 kph)
- 10SM
18:55
Clear
75°F / 24°C 68°F / 20°C 78% 29.92 in
(1013 mb)
Calm -
18:35
Clear
75°F / 24°C 70°F / 21°C 83% 29.92 in
(1013 mb)
Calm -
18:15
Clear
77°F / 25°C 70°F / 21°C 79% 29.92 in
(1013 mb)
Calm -
17:55
Clear
79°F / 26°C 70°F / 21°C 74% 29.92 in
(1013 mb)
Calm -
17:35
Clear
81°F / 27°C 68°F / 20°C 66% 29.92 in
(1013 mb)
Calm -
17:15
Clear
82°F / 28°C 66°F / 19°C 58% 29.89 in
(1012 mb)
Calm -
16:55
Clear
82°F / 28°C 66°F / 19°C 58% 29.89 in
(1012 mb)
NW 3.5 mph
(NW 6 kph)
-
16:35
Clear
82°F / 28°C 64°F / 18°C 55% 29.89 in
(1012 mb)
Calm - 10SM
16:15
Clear
82°F / 28°C 64°F / 18°C 55% 29.92 in
(1013 mb)
Calm - 10SM
15:55
Partly Cloudy
84°F / 29°C 64°F / 18°C 51% 29.92 in
(1013 mb)
Calm - 10SM
15:35
Clear
84°F / 29°C 64°F / 18°C 51% 29.89 in
(1012 mb)
Calm - 10SM
15:15
Clear
84°F / 29°C 64°F / 18°C 51% 29.89 in
(1012 mb)
Calm - 10SM
14:55
Clear
82°F / 28°C 64°F / 18°C 55% 29.89 in
(1012 mb)
Calm -
14:35
Partly Cloudy
82°F / 28°C 64°F / 18°C 55% 29.89 in
(1012 mb)
NW 5.8 mph
(NW 9 kph)
- 10SM
14:15
Partly Cloudy
82°F / 28°C 64°F / 18°C 55% 29.89 in
(1012 mb)
N 4.6 mph
(N 7 kph)
- 10SM
13:55
Mostly Cloudy
82°F / 28°C 64°F / 18°C 55% 29.92 in
(1013 mb)
Calm - 10SM
13:35
Partly Cloudy
81°F / 27°C 63°F / 17°C 54% 29.92 in
(1013 mb)
Calm - 10SM
13:15
Partly Cloudy
82°F / 28°C 63°F / 17°C 51% 29.92 in
(1013 mb)
N 5.8 mph
(N 9 kph)
- 10SM
12:55
Mostly Cloudy
81°F / 27°C 63°F / 17°C 54% 29.92 in
(1013 mb)
N 3.5 mph
(N 6 kph)
- 10SM
12:35
Mostly Cloudy
81°F / 27°C 63°F / 17°C 54% 29.92 in
(1013 mb)
N 5.8 mph
(N 9 kph)
- 10SM
12:15
Mostly Cloudy
82°F / 28°C 63°F / 17°C 51% 29.95 in
(1014 mb)
NNW 6.9 mph
(NNW 11 kph)
- 10SM
11:55
Partly Cloudy
81°F / 27°C 61°F / 16°C 51% 29.95 in
(1014 mb)
N 4.6 mph
(N 7 kph)
- 10SM
11:35
Clear
81°F / 27°C 61°F / 16°C 51% 29.95 in
(1014 mb)
N 3.5 mph
(N 6 kph)
- 10SM
11:15
Clear
81°F / 27°C 61°F / 16°C 51% 29.95 in
(1014 mb)
NNW 8.1 mph
(NNW 13 kph)
- 10SM
10:55
Clear
81°F / 27°C 61°F / 16°C 51% 29.95 in
(1014 mb)
NNW 5.8 mph
(NNW 9 kph)
- 10SM
10:35
Clear
79°F / 26°C 61°F / 16°C 54% 29.95 in
(1014 mb)
N 5.8 mph
(N 9 kph)
- 10SM
10:15
Clear
79°F / 26°C 61°F / 16°C 54% 29.95 in
(1014 mb)
N 6.9 mph
(N 11 kph)
- 10SM
09:55
Clear
79°F / 26°C 61°F / 16°C 54% 29.95 in
(1014 mb)
NNW 6.9 mph
(NNW 11 kph)
- 10SM
09:35
Clear
79°F / 26°C 61°F / 16°C 54% 29.95 in
(1014 mb)
NNW 10.4 mph
(NNW 17 kph)
- 10SM
09:15
Clear
77°F / 25°C 61°F / 16°C 57% 29.95 in
(1014 mb)
N 6.9 mph
(N 11 kph)
- 10SM
08:55
Clear
77°F / 25°C 63°F / 17°C 61% 29.95 in
(1014 mb)
N 6.9 mph
(N 11 kph)
- 10SM
08:35
Clear
77°F / 25°C 64°F / 18°C 65% 29.95 in
(1014 mb)
N 6.9 mph
(N 11 kph)
- 10SM
08:15
Clear
77°F / 25°C 64°F / 18°C 65% 29.95 in
(1014 mb)
N 9.2 mph
(N 15 kph)
- 10SM
07:55
Clear
73°F / 23°C 68°F / 20°C 83% 29.92 in
(1013 mb)
N 5.8 mph
(N 9 kph)
- 10SM
07:35
Clear
73°F / 23°C 70°F / 21°C 89% 29.92 in
(1013 mb)
NNW 4.6 mph
(NNW 7 kph)
- 10SM
07:15
Clear
Fog And Mist
72°F / 22°C 72°F / 22°C 100% 29.92 in
(1013 mb)
NNW 5.8 mph
(NNW 9 kph)
- 5SM
06:55
Clear
Fog And Mist
70°F / 21°C 70°F / 21°C 100% 29.92 in
(1013 mb)
NNW 5.8 mph
(NNW 9 kph)
- 3SM
06:35
Partly Cloudy
Fog And Mist
68°F / 20°C 68°F / 20°C 100% 29.92 in
(1013 mb)
Calm - 2SM
06:15
Obscured
Fog And Mist
68°F / 20°C 68°F / 20°C 100% 29.92 in
(1013 mb)
Calm - 3/4SM
05:55
Obscured
Fog
66°F / 19°C 66°F / 19°C 100% 29.92 in
(1013 mb)
Calm - 1/4SM
05:35
Mostly Cloudy
Fog And Mist
68°F / 20°C 68°F / 20°C 100% 29.92 in
(1013 mb)
Calm - 1 1/2SM
05:15
Mostly Cloudy
Fog And Mist
68°F / 20°C 68°F / 20°C 100% 29.92 in
(1013 mb)
Calm - 5SM
04:55
Mostly Cloudy
Fog And Mist
68°F / 20°C 68°F / 20°C 100% 29.92 in
(1013 mb)
Calm - 5SM
04:35
Partly Cloudy
Fog And Mist
68°F / 20°C 68°F / 20°C 100% 29.89 in
(1012 mb)
Calm - 4SM
04:15
Partly Cloudy
Fog And Mist
68°F / 20°C 68°F / 20°C 100% 29.89 in
(1012 mb)
SE 3.5 mph
(SE 6 kph)
- 4SM
03:55
Partly Cloudy
Fog And Mist
68°F / 20°C 68°F / 20°C 100% 29.89 in
(1012 mb)
SE 3.5 mph
(SE 6 kph)
- 4SM
03:35
Clear
Fog And Mist
68°F / 20°C 66°F / 19°C 94% 29.89 in
(1012 mb)
Calm - 2 1/2SM
03:15
Clear
Fog And Mist
68°F / 20°C 68°F / 20°C 100% 29.89 in
(1012 mb)
Calm - 2SM
02:55
Clear
Fog And Mist
70°F / 21°C 70°F / 21°C 100% 29.89 in
(1012 mb)
Calm - 4SM
02:35
Clear
70°F / 21°C 70°F / 21°C 100% 29.89 in
(1012 mb)
Calm - 7SM
02:15
Clear
70°F / 21°C 70°F / 21°C 100% 29.89 in
(1012 mb)
Calm - 7SM
01:55
Clear
70°F / 21°C 70°F / 21°C 100% 29.89 in
(1012 mb)
Calm - 10SM
01:35
Clear
70°F / 21°C 70°F / 21°C 100% 29.89 in
(1012 mb)
Calm - 10SM
01:15
Clear
70°F / 21°C 70°F / 21°C 100% 29.89 in
(1012 mb)
Calm - 10SM
00:55
Clear
70°F / 21°C 70°F / 21°C 100% 29.89 in
(1012 mb)
SSE 3.5 mph
(SSE 6 kph)
- 7SM
00:35
Clear
70°F / 21°C 70°F / 21°C 100% 29.89 in
(1012 mb)
SE 3.5 mph
(SE 6 kph)
- 10SM
00:15
Clear
72°F / 22°C 70°F / 21°C 94% 29.92 in
(1013 mb)
Calm - 10SM
Time Weather Temperature Dewpoint Humidity Pressure Winds Precip Visibility


Weather for websites

WeatherForYou.com, LLC is not responsible for any damages or problems caused by this service. Current weather conditions are obtained from the closest station including government and personal stations which may have varying degrees of accuracy. Weather forecasts are derived from the NOAA NDFD. Like all things, this site belongs to Jesus Christ... He just trusts us to maintain it. If you have any questions or comments email webmaster@weatherforyou.com

Copyright © 2015, WeatherForYou.com LLC. All rights reserved.